[[{"header":{"parameterUnit":"m.s-1","parameterCategory":1,"la1":30.2991,"la2":30.254,"lo1":-89.0895,"lo2":-89.0444,"dy":0.0017,"dx":0.0017,"nx":28,"ny":28,"refTime":"2025-03-14T21:00:00:Z","depth":0,"parameterNumber":2,"parameterNumberName":"U-component_of_WINDS"},"data":[0,0,0,0,0,0,0,0,0,0,0,0,0,0,0,0,0,0,0,0,0,0,0,0,0,0,0,0,0,0,0,0,0,0,0,0,0,0,0,0,0,0,0,0,0,0,0,0,0,0,0,0,0,0,0,0,0,0,-0.46,-0.4602,0,-0.4784,-0.4786,-0.4788,-0.4915,-0.4916,-0.4917,-0.4918,-0.51,-0.5104,-0.5108,0,0,0,0,0,0,0,0,0,0,0,0,0,-0.4353,-0.4357,-0.46,-0.4602,-0.4604,-0.4783,-0.4786,-0.4788,-0.4915,-0.4916,-0.4917,-0.4918,-0.5099,-0.5104,-0.5108,0,0,0,0,0,0,0,0,0,0,0,0,0,-0.449,-0.4358,-0.4599,-0.4689,-0.4699,-0.4783,-0.4786,-0.4789,-0.4915,-0.4916,-0.4918,-0.4919,-0.5097,-0.5103,-0.5109,-0.5116,0,0,-0.5127,-0.513,0,0,0,0,0,0,0,0,-0.4483,-0.4499,-0.4674,-0.4683,-0.4694,-0.4828,-0.4766,-0.4899,-0.4914,-0.4833,-0.4918,-0.492,-0.5008,-0.5021,-0.5053,-0.5125,-0.5133,-0.5128,-0.5131,-0.5134,-0.5135,0,0,0,0,0,0,0,-0.4473,-0.4492,-0.4672,-0.4676,-0.4689,-0.4719,-0.474,-0.4792,-0.491,-0.484,-0.485,-0.487,-0.5014,-0.5047,-0.5058,-0.5135,-0.5127,-0.5133,-0.5136,-0.5139,-0.5223,-0.5222,0,0,0,0,0,0,-0.445,-0.4483,-0.4667,-0.4678,-0.459,-0.4722,-0.4746,-0.4784,-0.491,-0.493,-0.4868,-0.4875,-0.5036,-0.5051,-0.5065,-0.5082,-0.5134,-0.5139,-0.5143,-0.5224,-0.5223,-0.5221,0,0,0,0,0,0,-0.4444,-0.4465,-0.4659,-0.4584,-0.4611,-0.4725,-0.4766,-0.4786,-0.4819,-0.4931,-0.4952,-0.488,-0.5037,-0.5056,-0.5103,-0.509,-0.5142,-0.5147,-0.5226,-0.5224,-0.5222,-0.5116,0,0,0,0,0,0,-0.4437,-0.4462,-0.4467,-0.4583,-0.4614,-0.4696,-0.4766,-0.4789,-0.483,-0.484,-0.4948,-0.4967,-0.504,-0.5094,-0.5109,-0.5099,-0.5152,-0.5228,-0.5225,-0.5223,-0.5121,-0.511,-0.5101,0,0,0,0,0,-0.4427,-0.4429,-0.4467,-0.4488,-0.4623,-0.4695,-0.4712,-0.4798,-0.4828,-0.4834,-0.4906,-0.4964,-0.5089,-0.5097,-0.5116,-0.5107,-0.5229,-0.5226,-0.5223,-0.5125,-0.5112,-0.5102,0,0,0,0,0,0,-0.4306,-0.4445,-0.4489,-0.4528,-0.4599,-0.4716,-0.4725,-0.4782,-0.4843,-0.485,-0.4952,-0.4975,-0.5011,-0.5064,-0.5071,-0.5121,-0.5166,-0.5166,-0.5085,-0.5074,-0.5065,-0.5051,-0.5157,0,0,0,0,0,-0.4285,-0.4333,-0.4451,-0.4474,-0.4507,-0.461,-0.4644,-0.4704,-0.4781,-0.4811,-0.4886,-0.4956,-0.5012,-0.5046,-0.5103,-0.5129,-0.5154,-0.5133,-0.5123,-0.5114,-0.5113,-0.5131,-0.5123,-0.5212,-0.5212,-0.5212,0,0,-0.4239,-0.4321,-0.4345,-0.4452,-0.4514,-0.456,-0.4634,-0.468,-0.4715,-0.4817,-0.4867,-0.4924,-0.5009,-0.5046,-0.5065,-0.5091,-0.5095,-0.5111,-0.5103,-0.5107,-0.5127,-0.5119,-0.5111,-0.521,-0.521,-0.521,0,0,-0.4181,-0.4248,-0.4275,-0.4336,-0.4429,-0.4498,-0.4504,-0.4613,-0.4656,-0.4708,-0.4785,-0.4827,-0.4921,-0.4979,-0.502,-0.4984,-0.5039,-0.4999,-0.4948,-0.4964,-0.4957,-0.4952,-0.4939,-0.4933,-0.4998,-0.4998,-0.4998,0,-0.4112,-0.4187,-0.4281,-0.4323,-0.4367,-0.4464,-0.4491,-0.4545,-0.4651,-0.4679,-0.4706,-0.4826,-0.489,-0.4942,-0.4933,-0.4963,-0.4973,-0.4987,-0.4951,-0.4946,-0.4942,-0.4931,-0.4926,-0.4992,-0.4993,-0.4994,-0.4994,0,-0.4098,-0.4149,-0.4159,-0.4261,-0.4307,-0.4341,-0.4438,-0.4473,-0.4529,-0.4593,-0.4644,-0.4725,-0.48,-0.4817,-0.4871,-0.4876,-0.4889,-0.4932,-0.4979,-0.4927,-0.4918,-0.4914,-0.4985,-0.4987,-0.4988,-0.499,0,0,-0.3968,-0.4123,-0.4125,-0.4173,-0.4284,-0.4324,-0.4362,-0.4438,-0.4465,-0.4535,-0.4569,-0.4646,-0.4687,-0.4734,-0.4795,-0.481,-0.4776,-0.4851,-0.4855,-0.4834,-0.4786,-0.4753,-0.4746,-0.4814,-0.4813,-0.4813,-0.4779,0,-0.3926,-0.4002,-0.4088,-0.4133,-0.418,-0.4273,-0.4306,-0.4377,-0.4438,-0.4486,-0.4554,-0.4607,-0.4657,-0.4686,-0.4705,-0.4776,-0.4767,-0.478,-0.4845,-0.4846,-0.482,-0.4742,-0.4707,-0.4671,-0.4776,-0.4775,-0.4775,0,-0.3888,-0.3955,-0.4005,-0.4113,-0.4136,-0.4164,-0.4241,-0.4286,-0.4367,-0.4411,-0.4464,-0.453,-0.4574,-0.4615,-0.4676,-0.4682,-0.4714,-0.4753,-0.4754,-0.4763,-0.4807,-0.4748,-0.4661,-0.4655,-0.4771,-0.4771,-0.4771,0,-0.3787,-0.3891,-0.3935,-0.3973,-0.4099,-0.4116,-0.4169,-0.4253,-0.4293,-0.4359,-0.4386,-0.4455,-0.4493,-0.4545,-0.4628,-0.4651,-0.4679,-0.4728,-0.4716,-0.4713,-0.4717,-0.4716,-0.4633,-0.4737,-0.4737,-0.4738,-0.4738,0,-0.3732,-0.3759,-0.3892,-0.3918,-0.3951,-0.4049,-0.4078,-0.4139,-0.4212,-0.4251,-0.4335,-0.437,-0.4478,-0.4525,-0.459,-0.463,-0.4646,-0.4682,-0.4698,-0.4674,-0.4669,-0.4696,-0.47,-0.4736,-0.4737,-0.4737,-0.4737,0,-0.3625,-0.3716,-0.377,-0.3885,-0.3915,-0.3933,-0.4032,-0.406,-0.4127,-0.4176,-0.4193,-0.4297,-0.4357,-0.4445,-0.453,-0.4574,-0.4604,-0.4631,-0.4576,-0.4587,-0.457,-0.457,-0.4501,-0.4497,-0.4603,-0.4602,-0.4601,0,-0.3584,-0.3607,-0.3726,-0.3759,-0.381,-0.3862,-0.3904,-0.4001,-0.4041,-0.4136,-0.4153,-0.4219,-0.4278,-0.4368,-0.4451,-0.4516,-0.4546,-0.4518,-0.4556,-0.4531,-0.4546,-0.4543,-0.4546,-0.4508,-0.4506,-0.4505,-0.4504,0,-0.3501,-0.3544,-0.3603,-0.3677,-0.3726,-0.3788,-0.3854,-0.3876,-0.3987,-0.4027,-0.4091,-0.4136,-0.4225,-0.4289,-0.4366,-0.4419,-0.4479,-0.4491,-0.4492,-0.4467,-0.4435,-0.4452,-0.4551,-0.4492,-0.4493,-0.4494,-0.4495,-0.4495,-0.3426,-0.3451,-0.3539,-0.3601,-0.3662,-0.3722,-0.3755,-0.3827,-0.3882,-0.3963,-0.4016,-0.4076,-0.4157,-0.4267,-0.4317,-0.4364,-0.439,-0.439,-0.4391,-0.4389,-0.4381,-0.4427,-0.4378,-0.4379,-0.4379,-0.438,-0.438,0,-0.3347,-0.3408,-0.3465,-0.3556,-0.3605,-0.366,-0.3736,-0.3772,-0.3825,-0.3896,-0.3953,-0.4025,-0.4088,-0.4176,-0.4245,-0.4266,-0.4295,-0.4281,-0.428,-0.4291,-0.4354,-0.4346,-0.4256,-0.4256,-0.4256,-0.4256,-0.4256,-0.4256,-0.3312,-0.3358,-0.3412,-0.3488,-0.3549,-0.361,-0.3649,-0.3704,-0.3762,-0.3839,-0.3893,-0.3951,-0.4028,-0.4104,-0.4164,-0.4188,-0.421,-0.4187,-0.4219,-0.4275,-0.4287,-0.4298,-0.4291,-0.419,-0.419,-0.4153,-0.4152,-0.4152]},{"header":{"parameterUnit":"m.s-1","parameterCategory":1,"la1":30.2991,"la2":30.254,"lo1":-89.0895,"lo2":-89.0444,"dy":0.0017,"dx":0.0017,"nx":28,"ny":28,"refTime":"2025-03-14T21:00:00:Z","depth":0,"parameterNumber":3,"parameterNumberName":"V-component_of_WINDS"},"data":[0,0,0,0,0,0,0,0,0,0,0,0,0,0,0,0,0,0,0,0,0,0,0,0,0,0,0,0,0,0,0,0,0,0,0,0,0,0,0,0,0,0,0,0,0,0,0,0,0,0,0,0,0,0,0,0,0,0,10.0709,10.071,0,10.0794,10.0795,10.0796,10.0743,10.0741,10.0738,10.0736,10.0817,10.0821,10.0826,0,0,0,0,0,0,0,0,0,0,0,0,0,10.0496,10.05,10.0709,10.071,10.0711,10.0794,10.0795,10.0796,10.0744,10.0741,10.0738,10.0735,10.0815,10.0821,10.0826,0,0,0,0,0,0,0,0,0,0,0,0,0,10.0585,10.0502,10.0708,10.0695,10.0695,10.0793,10.0795,10.0796,10.0744,10.0741,10.0737,10.0733,10.0814,10.082,10.0827,10.0942,0,0,10.0847,10.085,0,0,0,0,0,0,0,0,10.058,10.0593,10.0696,10.0696,10.0696,10.0754,10.0749,10.0845,10.0745,10.0725,10.0736,10.0732,10.0799,10.0806,10.083,10.0945,10.0949,10.0848,10.0852,10.0855,10.0856,0,0,0,0,0,0,0,10.0574,10.0589,10.0742,10.0697,10.0697,10.0683,10.0691,10.0767,10.0781,10.0727,10.0723,10.0734,10.0798,10.0824,10.0832,10.095,10.0847,10.0853,10.0857,10.086,10.1166,10.117,0,0,0,0,0,0,10.057,10.0584,10.0739,10.0745,10.0628,10.069,10.0699,10.0739,10.078,10.0783,10.0737,10.0731,10.0814,10.0824,10.0834,10.0973,10.0854,10.0861,10.0865,10.1162,10.1167,10.1171,0,0,0,0,0,0,10.0566,10.0584,10.0736,10.0664,10.0682,10.0697,10.0742,10.0743,10.0769,10.0789,10.079,10.0762,10.0812,10.0825,10.0916,10.0975,10.0864,10.087,10.1157,10.1163,10.1169,10.1251,0,0,0,0,0,0,10.056,10.0583,10.0628,10.0665,10.0686,10.0818,10.0746,10.0747,10.0781,10.0774,10.0812,10.0814,10.081,10.0907,10.0923,10.0982,10.0875,10.1152,10.116,10.1167,10.1243,10.1259,10.1273,0,0,0,0,0,10.0552,10.0646,10.0631,10.0649,10.0743,10.0822,10.0833,10.0828,10.0786,10.0831,10.0844,10.0813,10.0966,10.0916,10.0934,10.0997,10.1148,10.1157,10.1166,10.1237,10.1256,10.1273,0,0,0,0,0,0,10.0612,10.065,10.0634,10.0743,10.078,10.0813,10.0869,10.0849,10.0897,10.0888,10.0877,10.0886,10.0982,10.0998,10.0942,10.1111,10.105,10.1063,10.1097,10.1116,10.1131,10.1125,10.0881,0,0,0,0,0,10.0639,10.0702,10.073,10.0824,10.0843,10.0853,10.0887,10.088,10.0917,10.0932,10.0951,10.0987,10.1043,10.108,10.1133,10.1245,10.1253,10.1297,10.1312,10.1324,10.1336,10.1398,10.1418,10.1202,10.1202,10.1201,0,0,10.0693,10.0721,10.0761,10.0837,10.0864,10.0929,10.0867,10.0936,10.0984,10.0942,10.1031,10.1046,10.1085,10.1188,10.1234,10.1204,10.1398,10.1336,10.1345,10.1351,10.141,10.143,10.1449,10.1208,10.1207,10.1206,0,0,10.0825,10.0853,10.0935,10.0965,10.1009,10.1015,10.1035,10.1072,10.1081,10.1171,10.1141,10.1196,10.1293,10.1323,10.135,10.1496,10.147,10.1513,10.1591,10.1652,10.1669,10.1684,10.1738,10.1757,10.1524,10.1525,10.1525,0,10.0886,10.0984,10.0978,10.1052,10.1086,10.1054,10.1136,10.1164,10.1223,10.1246,10.1212,10.1335,10.1358,10.1469,10.1505,10.1528,10.155,10.1509,10.1668,10.1683,10.1697,10.1748,10.1767,10.153,10.1529,10.1529,10.1528,0,10.1057,10.1125,10.1186,10.1247,10.1287,10.1364,10.137,10.1411,10.1401,10.141,10.1502,10.153,10.1589,10.1614,10.1603,10.1724,10.1704,10.1669,10.1608,10.1723,10.177,10.179,10.1537,10.1535,10.1534,10.1532,0,0,10.1229,10.1288,10.131,10.1338,10.1385,10.1437,10.1512,10.1572,10.1609,10.165,10.1713,10.1797,10.1766,10.1797,10.179,10.1843,10.1959,10.1802,10.1802,10.1831,10.2095,10.2122,10.2144,10.1942,10.1945,10.1948,10.2092,0,10.1365,10.1501,10.1499,10.1623,10.1687,10.1658,10.1724,10.1759,10.177,10.1824,10.1835,10.1896,10.1849,10.1869,10.192,10.1934,10.2012,10.1923,10.2,10.2003,10.1993,10.2169,10.2197,10.2331,10.211,10.2114,10.2116,0,10.1542,10.1593,10.1725,10.1765,10.1791,10.1851,10.1907,10.1959,10.1998,10.2003,10.204,10.2024,10.21,10.2037,10.2142,10.2082,10.2114,10.2125,10.213,10.2138,10.2067,10.2183,10.2374,10.2395,10.2145,10.2142,10.214,0,10.1656,10.1757,10.185,10.1874,10.1922,10.1966,10.1987,10.2023,10.206,10.2108,10.2132,10.2187,10.2218,10.226,10.226,10.2214,10.2367,10.2303,10.2373,10.2373,10.2407,10.2405,10.2608,10.2426,10.2425,10.2425,10.2424,0,10.1809,10.1891,10.1902,10.1959,10.205,10.2047,10.2137,10.2154,10.2187,10.2246,10.2223,10.2278,10.2274,10.2331,10.2331,10.2419,10.2432,10.2437,10.2437,10.2441,10.244,10.2461,10.2453,10.243,10.2429,10.2428,10.2427,0,10.1952,10.1963,10.2062,10.2101,10.2113,10.2178,10.2211,10.2264,10.2274,10.235,10.2367,10.2382,10.2447,10.2451,10.2525,10.2525,10.2633,10.2621,10.2621,10.2619,10.2689,10.2683,10.2913,10.2944,10.2741,10.2742,10.2744,0,10.205,10.2113,10.216,10.2199,10.2224,10.2287,10.2326,10.2324,10.2365,10.2416,10.2464,10.2527,10.2578,10.2684,10.27,10.2757,10.2747,10.2824,10.2756,10.2758,10.275,10.2747,10.2754,10.2838,10.284,10.2842,10.2843,0,10.2222,10.2225,10.2283,10.2343,10.239,10.2436,10.248,10.2512,10.2516,10.2563,10.2631,10.2671,10.2748,10.2812,10.2868,10.2889,10.2867,10.2865,10.2884,10.2889,10.2887,10.2891,10.2658,10.286,10.2858,10.2857,10.2856,10.2855,10.2347,10.2402,10.2445,10.251,10.2543,10.2585,10.2638,10.2656,10.2713,10.2778,10.2773,10.2848,10.2887,10.2961,10.2987,10.3045,10.3018,10.3046,10.3053,10.3061,10.3069,10.2877,10.3055,10.3054,10.3054,10.3053,10.3053,0,10.252,10.2546,10.2606,10.2669,10.2721,10.2698,10.2745,10.2789,10.2857,10.2895,10.2947,10.3026,10.3088,10.311,10.317,10.3213,10.3205,10.3229,10.3226,10.3232,10.3088,10.3066,10.3235,10.3235,10.3235,10.3234,10.3234,10.3234,10.2616,10.271,10.2717,10.2827,10.2852,10.2928,10.2957,10.2995,10.3027,10.3117,10.3169,10.3184,10.3217,10.3279,10.3335,10.334,10.3364,10.3393,10.3394,10.326,10.3241,10.3224,10.3203,10.3398,10.3398,10.3532,10.3534,10.3535]}]]